Easton, MD

8:52 PM EDT on September 28, 2016 (GMT -0400)
Easton / Newnam

Weather History for KESN - June, 2013

Change the Weather History Date:

Sunday, June 9, 2013

  Actual Average Record
Temperature  
Mean Temperature 73 °F -  
Max Temperature 84 °F 84 °F 98 °F (2011)
Min Temperature 62 °F 62 °F 42 °F (1949)
Cooling Degree Days 8    
Growing Degree Days 23 (Base 50)    
Moisture  
Dew Point 66 °F    
Average Humidity 89    
Maximum Humidity 100    
Minimum Humidity 55    
Precipitation  
Precipitation 0.00 in - - ()
Sea Level Pressure  
Sea Level Pressure 30.17 in    
Wind  
Wind Speed 1 mph (South)    
Max Wind Speed 10 mph    
Max Gust Speed -    
Visibility 6 miles    
Events Fog    
Averages and records for this station are not official NWS values.
T = Trace of Precipitation, MM = Missing Value Source: NWS Daily Summary

Daily Weather History Graph

Daily Weather History Graph

Search for Another Location

Airport or City:

Trip Planner

Search our weather history database for the weather conditions in past years. The results will help you decide how hot, cold, wet, or windy it might be!

Date:

Astronomy

Jun. 09, 2013 Rise Set
Actual Time 5:38 AM EDT 8:28 PM EDT
Civil Twilight 5:07 AM EDT 9:00 PM EDT
Nautical Twilight 4:27 AM EDT 9:40 PM EDT
Astronomical Twilight 3:41 AM EDT 10:25 PM EDT
Moon 6:32 AM EDT (6/9) 9:14 PM EDT (6/9)
Length of Visible Light 15h 53m
Length of Day
14h 49m
New Moon, 1% of the Moon is Illuminated
Jun 9
New Moon
Jun 16
First Quarter
Jun 23
Full
Jun 30
Last Quarter
Jul 8
New

Hourly Weather History & Observations

Time (EDT) Temp. Heat Index Dew Point Humidity Pressure Visibility Wind Dir Wind Speed Gust Speed Precip Events Conditions
12:14 AM 66.0 °F - 66.0 °F 100% 30.13 in 7.0 mi Calm Calm - N/A   Clear
12:34 AM 65.3 °F - 65.3 °F 100% 30.13 in 5.0 mi Calm Calm - N/A   Clear
12:54 AM 65.3 °F - 65.3 °F 100% 30.13 in 7.0 mi Calm Calm - N/A   Clear
1:14 AM 65.1 °F - 65.1 °F 100% 30.14 in 5.0 mi Calm Calm - N/A   Clear
1:34 AM 64.6 °F - 64.6 °F 100% 30.14 in 3.0 mi Calm Calm - N/A   Clear
1:54 AM 64.6 °F - 64.6 °F 100% 30.14 in 3.0 mi Calm Calm - N/A   Clear
2:14 AM 64.4 °F - 64.4 °F 100% 30.14 in 3.0 mi Calm Calm - N/A   Clear
2:34 AM 63.9 °F - 63.9 °F 100% 30.14 in 1.5 mi Calm Calm - N/A   Mist
2:54 AM 63.3 °F - 63.3 °F 100% 30.13 in 4.0 mi Calm Calm - N/A   Clear
3:14 AM 63.9 °F - 63.9 °F 100% 30.14 in 4.0 mi Calm Calm - N/A   Clear
3:34 AM 63.7 °F - 63.7 °F 100% 30.14 in 3.0 mi Calm Calm - N/A   Scattered Clouds
3:54 AM 63.7 °F - 63.7 °F 100% 30.15 in 4.0 mi Calm Calm - N/A   Clear
4:14 AM 63.1 °F - 63.1 °F 100% 30.15 in 3.0 mi Calm Calm - N/A   Clear
4:34 AM 63.0 °F - 63.0 °F 100% 30.16 in 4.0 mi Calm Calm - N/A   Clear
4:54 AM 62.8 °F - 62.8 °F 100% 30.16 in 3.0 mi Calm Calm - N/A   Mist
5:14 AM 62.8 °F - 62.8 °F 100% 30.17 in 1.5 mi Calm Calm - N/A   Overcast
5:34 AM 63.0 °F - 63.0 °F 100% 30.17 in 0.5 mi Calm Calm - N/A Fog Fog
5:50 AM 62.6 °F - 62.6 °F 100% 30.18 in 0.8 mi Calm Calm - N/A   Overcast
5:54 AM 63.5 °F - 63.5 °F 100% 30.18 in 1.0 mi Calm Calm - N/A   Overcast
6:14 AM 64.0 °F - 64.0 °F 100% 30.18 in 1.8 mi Calm Calm - N/A   Scattered Clouds
6:34 AM 64.4 °F - 64.4 °F 100% 30.19 in 2.5 mi Calm Calm - N/A   Overcast
6:50 AM 66.2 °F - 66.2 °F 100% 30.19 in 0.5 mi Calm Calm - N/A Fog Fog
6:54 AM 66.0 °F - 66.0 °F 100% 30.19 in 0.5 mi Calm Calm - N/A Fog Fog
7:14 AM 66.6 °F - 66.6 °F 100% 30.20 in 1.0 mi Calm Calm - N/A   Overcast
7:25 AM 68.0 °F - 68.0 °F 100% 30.20 in 1.5 mi Calm Calm - N/A   Overcast
7:34 AM 69.3 °F - 69.3 °F 100% 30.20 in 2.0 mi Calm Calm - N/A   Mist
7:42 AM 69.8 °F - 69.8 °F 100% 30.21 in 2.0 mi Calm Calm - N/A   Mist
7:50 AM 71.6 °F - 71.6 °F 100% 30.21 in 2.5 mi Calm Calm - N/A   Clear
8:28 AM 73.4 °F - 68.0 °F 83% 30.22 in 7.0 mi Calm Calm - N/A   Overcast
8:48 AM 73.4 °F - 66.2 °F 78% 30.24 in 7.0 mi Calm Calm - N/A   Overcast
9:58 AM 75.2 °F - 66.2 °F 73% 30.24 in 7.0 mi Calm Calm - N/A   Overcast
10:55 AM 78.8 °F - 66.2 °F 65% 30.22 in 10.0 mi Calm Calm - N/A   Overcast
11:53 AM 80.6 °F 82.7 °F 66.2 °F 61% 30.22 in 10.0 mi Calm Calm - N/A   Mostly Cloudy
12:05 PM 82.4 °F 85.4 °F 68.0 °F 62% 30.22 in 10.0 mi SE 4.6 mph - N/A   Mostly Cloudy
12:55 PM 80.6 °F 83.2 °F 68.0 °F 65% 30.22 in 10.0 mi Calm Calm - N/A   Mostly Cloudy
1:50 PM 82.4 °F 85.4 °F 68.0 °F 62% 30.20 in 10.0 mi West 3.5 mph - N/A   Mostly Cloudy
2:50 PM 82.4 °F 85.4 °F 68.0 °F 62% 30.18 in 10.0 mi SW 5.8 mph - N/A   Scattered Clouds
3:50 PM 84.2 °F 87.3 °F 68.0 °F 58% 30.16 in 10.0 mi SE 4.6 mph - N/A   Scattered Clouds
4:50 PM 84.2 °F 86.6 °F 66.2 °F 55% 30.16 in 10.0 mi SSE 8.1 mph - N/A   Mostly Cloudy
5:53 PM 82.4 °F 84.6 °F 66.2 °F 58% 30.13 in 10.0 mi SSE 10.4 mph - N/A   Mostly Cloudy
6:50 PM 82.4 °F 84.6 °F 66.2 °F 58% 30.15 in 10.0 mi SSE 9.2 mph - N/A   Scattered Clouds
7:50 PM 77.0 °F - 66.2 °F 69% 30.17 in 10.0 mi South 8.1 mph - N/A   Mostly Cloudy
8:50 PM 73.4 °F - 68.0 °F 83% 30.18 in 10.0 mi SSE 5.8 mph - N/A   Mostly Cloudy
10:56 PM 69.3 °F - 66.9 °F 92% 30.18 in 10.0 mi Calm Calm - N/A   Clear
11:16 PM 68.9 °F - 67.1 °F 94% 30.17 in 10.0 mi Calm Calm - N/A   Clear
11:36 PM 68.4 °F - 67.1 °F 96% 30.16 in 10.0 mi Calm Calm - N/A   Clear
11:56 PM 68.0 °F - 67.5 °F 98% 30.16 in 10.0 mi Calm Calm - N/A   Clear